Regional Weather Roundup
Issued by NWS Spokane, WA

Home | Current Version | Previous Version | Text Only | Print | Product List | Glossary On
Versions: 1 2 3 4 5 6 7 8 9 10 11 12 13 14 15 16 17 18 19 20 21 22 23 24 25 26 27 28 29 30 31 32 33 34 35 36 37 38 39 40 41 42 43 44 45 46 47 48 49 50
000
NZUS01 KOTX 262305
RWROTX
EASTERN WASHINGTON/NORTHERN IDAHO ROUNDUP
NATIONAL WEATHER SERVICE, SPOKANE WA
300 PM PST MON JAN 26 2015

Note: "fair" indicated few or no clouds below 12,000 feet with no
significant weather and/or obstructions to visibility.

...NORTHEAST WASHINGTON AND NORTHERN IDAHO PANHANDLE...

CITY           SKY/WX    TMP DP  RH WIND       PRES   REMARKS
SPOKANE INTL   PTSUNNY   48  41  76 NE3       30.01S
SPOKANE DOWNTO SUNNY     50  40  68 SW3       30.01F
COEUR D ALENE  SUNNY     46  39  76 NE9       30.00S
DEER PARK      SUNNY     45  38  76 W5        30.02F
SANDPOINT      FOG       36  36 100 CALM      30.04S VSB<1/4
BONNERS FERRY  CLOUDY    37  37 100 S3        30.01S FOG

...SOUTHEAST WASHINGTON AND SOUTHERN IDAHO PANHANDLE...

CITY           SKY/WX    TMP DP  RH WIND       PRES   REMARKS
WALLA WALLA    FOG       38  37  97 VRB3      30.04S VSB 1
PULLMAN/MOSCOW SUNNY     57  41  55 SE13      30.04F
LEWISTON       SUNNY     62  38  40 S12       30.01F
LOWELL           N/A     43  38  82 N6        30.10S

...COLUMBIA BASIN...

CITY           SKY/WX    TMP DP  RH WIND       PRES   REMARKS
EPHRATA        MOSUNNY   49  40  71 SE8       30.01S
MOSES LAKE     MOSUNNY   41  38  89 SE7       30.03S
TRI CITIES     CLOUDY    40  39  97 SE3       30.07F FOG
HERMISTON      CLOUDY    38  37  97 CALM      30.06S FOG
PENDLETON      FOG       38  37  97 NW5       30.02S VSB 1/4

...EAST SLOPES CASCADES...

CITY           SKY/WX    TMP DP  RH WIND       PRES   REMARKS
THE DALLES     CLOUDY    44  38  79 CALM      30.06F
YAKIMA         FOG       38  36  92 E3        30.04F VSB 1/2
ELLENSBURG     FOG       40  36  86 CALM      30.00F VSB 1/4
WENATCHEE      CLOUDY    38  34  85 CALM      30.02F
OMAK           FOG       33  33 100 S5        30.03F VSB<1/4 WCI  29

...SOUTHERN BRITISH COLUMBIA...

CITY           SKY/WX    TMP DP  RH WIND       PRES   REMARKS

...WESTERN MONTANA...

CITY           SKY/WX    TMP DP  RH WIND       PRES   REMARKS
MISSOULA       SUNNY     41  32  70 W5        30.08S

...NEIGHBORING CITIES...

CITY           SKY/WX    TMP DP  RH WIND       PRES   REMARKS
SEATTLE        MOSUNNY   60  47  61 S6        29.93S



USA.gov is the U.S. government's official web portal to all federal, state and local government web resources and services.